Weather History for Thedford, NE

Change the Weather History Date:

Saturday, January 25, 2014

  Actual Average (KLBF) Record (KLBF)
Temperature  
Mean Temperature 47 °F 25 °F  
Max Temperature 56 °F 39 °F 66 °F (1935)
Min Temperature 38 °F 12 °F -14 °F (1950)
Degree Days  
Heating Degree Days 18 40  
Month to date heating degree days 1005  
Since 1 July heating degree days 3785  
Cooling Degree Days 0 0  
Month to date cooling degree days 0  
Year to date cooling degree days 0  
Moisture  
Dew Point 31 °F    
Average Humidity 58    
Maximum Humidity 83    
Minimum Humidity 34    
Precipitation  
Precipitation 0.00 in 0.01 in 0.29 in (1950)
Month to date precipitation 0.27  
Year to date precipitation 0.27  
Snow  
Snow 0.00 in 0.20 in 3.00 in (1950)
Month to date snowfall 3.9  
Since 1 July snowfall 14.7  
Snow Depth -    
Sea Level Pressure  
Sea Level Pressure 29.90 in    
Wind  
Wind Speed 18 mph (WNW)    
Max Wind Speed 29 mph    
Max Gust Speed 40 mph    
Visibility 10 miles    
Events Rain    
T = Trace of Precipitation, MM = Missing Value Source: NWS Daily Summary

Daily Weather History Graph

Daily Weather History Graph

Search for Another Location

Airport:

Trip Planner

Search our weather history database for the weather conditions in past years. The results will help you decide how hot, cold, wet, or windy it might be!

Date:

Astronomy

Jan. 25, 2014 Rise Set
Actual Time 8:01 AM CST 5:48 PM CST
Civil Twilight 7:31 AM CST 6:18 PM CST
Nautical Twilight 6:57 AM CST 6:52 PM CST
Astronomical Twilight 6:24 AM CST 7:25 PM CST
Moon 2:34 AM CST (1/25) 12:50 PM CST (1/25)
Length of Visible Light 10h 47m
Length of Day
9h 47m
Waning Crescent, 34% of the Moon is Illuminated
Jan 25
Waning Crescent
Jan 30
New
Feb 6
First Quarter
Feb 14
Full
Feb 22
Last Quarter

Hourly Weather History & Observations

Time (CST) Temp. Windchill Dew Point Humidity Pressure Visibility Wind Dir Wind Speed Gust Speed Precip Events Conditions
12:15 AM 46.6 °F - 33.4 °F 60% 29.96 in 10.0 mi NNW 25.3 mph 39.1 mph N/A   Overcast
12:35 AM 46.0 °F 38.3 °F 33.3 °F 61% 29.96 in 10.0 mi NNW 20.7 mph 26.5 mph N/A   Overcast
12:55 AM 45.5 °F 38.1 °F 33.6 °F 63% 29.96 in 10.0 mi NNW 18.4 mph 25.3 mph N/A   Overcast
1:15 AM 45.1 °F 38.1 °F 33.3 °F 63% 29.96 in 10.0 mi NNW 16.1 mph 21.9 mph N/A   Overcast
1:35 AM 44.6 °F 38.8 °F 33.1 °F 64% 29.95 in 10.0 mi NW 11.5 mph - N/A   Overcast
1:55 AM 44.8 °F 35.3 °F 34.0 °F 66% 29.94 in 10.0 mi NNW 27.6 mph 36.8 mph N/A Rain Rain
2:15 AM 46.4 °F 37.4 °F 33.4 °F 61% 29.94 in 10.0 mi NNW 28.8 mph 40.3 mph N/A   Overcast
2:35 AM 44.4 °F 35.5 °F 35.2 °F 70% 29.95 in 10.0 mi NNW 24.2 mph 38.0 mph N/A Rain Light Rain
2:55 AM 45.5 °F 37.1 °F 34.0 °F 64% 29.96 in 10.0 mi NNW 23.0 mph 33.4 mph N/A   Overcast
3:15 AM 45.5 °F 37.3 °F 33.4 °F 63% 29.96 in 10.0 mi NW 21.9 mph 27.6 mph N/A   Overcast
3:35 AM 44.6 °F 35.1 °F 33.6 °F 65% 29.96 in 10.0 mi NW 27.6 mph 34.5 mph N/A Rain Light Rain
3:55 AM 45.1 °F 37.6 °F 33.8 °F 65% 29.96 in 10.0 mi NNW 18.4 mph 28.8 mph N/A   Overcast
4:15 AM 45.3 °F 37.8 °F 33.4 °F 63% 29.96 in 10.0 mi NW 18.4 mph 27.6 mph N/A   Overcast
4:35 AM 45.5 °F 38.1 °F 32.5 °F 61% 29.96 in 10.0 mi NNW 18.4 mph 26.5 mph N/A   Overcast
4:55 AM 45.5 °F 37.3 °F 32.2 °F 60% 29.97 in 10.0 mi NNW 21.9 mph 28.8 mph N/A   Overcast
5:15 AM 44.8 °F 36.4 °F 32.9 °F 63% 29.97 in 10.0 mi NNW 21.9 mph 29.9 mph N/A   Drizzle
5:35 AM 44.2 °F 36.7 °F 33.3 °F 65% 29.98 in 10.0 mi NNW 17.3 mph 32.2 mph N/A   Light Drizzle
5:55 AM 43.3 °F 34.5 °F 33.1 °F 67% 29.99 in 10.0 mi NNW 21.9 mph 28.8 mph N/A   Overcast
6:15 AM 42.8 °F 33.8 °F 33.6 °F 70% 29.99 in 10.0 mi NNW 21.9 mph 31.1 mph N/A   Overcast
6:35 AM 41.5 °F 31.6 °F 34.5 °F 76% 29.99 in 10.0 mi NNW 24.2 mph 31.1 mph N/A   Drizzle
6:55 AM 40.5 °F 30.9 °F 35.1 °F 81% 30.01 in 7.0 mi NNW 20.7 mph 28.8 mph N/A   Overcast
7:15 AM 39.6 °F 30.3 °F 34.7 °F 83% 30.02 in 10.0 mi NNW 18.4 mph 25.3 mph N/A   Mostly Cloudy
7:35 AM 39.2 °F 31.2 °F 34.2 °F 82% 30.02 in 10.0 mi NNW 13.8 mph 23.0 mph N/A   Mostly Cloudy
7:55 AM 39.6 °F 31.7 °F 34.3 °F 82% 30.03 in 10.0 mi NW 13.8 mph - N/A   Overcast
8:15 AM 39.4 °F 30.7 °F 34.5 °F 83% 30.04 in 10.0 mi NNW 16.1 mph 21.9 mph N/A   Overcast
8:35 AM 39.0 °F 30.3 °F 33.8 °F 82% 30.05 in 10.0 mi NNW 16.1 mph 23.0 mph N/A   Overcast
8:55 AM 38.8 °F 32.1 °F 32.9 °F 79% 30.05 in 10.0 mi NNW 10.4 mph - N/A   Overcast
9:15 AM 39.2 °F 31.2 °F 32.0 °F 75% 30.05 in 10.0 mi NNW 13.8 mph 20.7 mph N/A   Overcast
9:35 AM 39.2 °F 33.0 °F 31.8 °F 75% 30.05 in 10.0 mi NNW 9.2 mph - N/A   Overcast
9:55 AM 39.2 °F 31.6 °F 31.8 °F 75% 30.05 in 10.0 mi NW 12.7 mph - N/A   Overcast
10:15 AM 39.4 °F 32.7 °F 32.0 °F 75% 30.05 in 10.0 mi NNW 10.4 mph - N/A   Overcast
10:35 AM 40.1 °F 33.2 °F 32.2 °F 73% 30.05 in 10.0 mi NW 11.5 mph - N/A   Overcast
10:55 AM 41.0 °F 35.2 °F 32.7 °F 72% 30.05 in 10.0 mi WNW 9.2 mph - N/A   Overcast
11:15 AM 41.2 °F 33.7 °F 32.4 °F 71% 30.05 in 10.0 mi NW 13.8 mph - N/A   Overcast
11:35 AM 43.0 °F 36.8 °F 32.9 °F 68% 30.03 in 10.0 mi NW 11.5 mph 16.1 mph N/A   Overcast
11:55 AM 44.4 °F 38.2 °F 33.4 °F 65% 30.03 in 10.0 mi NW 12.7 mph 19.6 mph N/A   Overcast
12:15 PM 45.1 °F 39.9 °F 33.4 °F 64% 30.01 in 10.0 mi WNW 10.4 mph - N/A   Overcast
12:35 PM 44.8 °F 38.0 °F 33.6 °F 65% 30.00 in 10.0 mi West 15.0 mph 19.6 mph N/A   Overcast
12:55 PM 45.3 °F 39.7 °F 34.0 °F 65% 29.98 in 10.0 mi West 11.5 mph 17.3 mph N/A   Overcast
1:15 PM 45.0 °F 39.7 °F 34.2 °F 66% 29.97 in 10.0 mi West 10.4 mph - N/A   Overcast
1:35 PM 45.1 °F 40.3 °F 34.7 °F 67% 29.95 in 10.0 mi West 9.2 mph - N/A   Overcast
1:55 PM 47.1 °F - 34.7 °F 62% 29.93 in 10.0 mi West 10.4 mph - N/A   Overcast
2:15 PM 49.5 °F - 34.9 °F 57% 29.91 in 10.0 mi West 12.7 mph - N/A   Mostly Cloudy
2:35 PM 51.6 °F - 34.0 °F 51% 29.89 in 10.0 mi WSW 15.0 mph 20.7 mph N/A   Scattered Clouds
2:55 PM 53.1 °F - 32.7 °F 46% 29.87 in 10.0 mi West 13.8 mph 18.4 mph N/A   Clear
3:15 PM 54.0 °F - 31.5 °F 42% 29.85 in 10.0 mi West 12.7 mph - N/A   Clear
3:35 PM 55.4 °F - 29.7 °F 37% 29.84 in 10.0 mi West 15.0 mph 23.0 mph N/A   Clear
3:55 PM 55.9 °F - 29.7 °F 37% 29.83 in 10.0 mi West 12.7 mph - N/A   Clear
4:15 PM 56.3 °F - 28.9 °F 35% 29.80 in 10.0 mi West 15.0 mph 19.6 mph N/A   Clear
4:35 PM 56.5 °F - 28.0 °F 34% 29.80 in 10.0 mi West 15.0 mph 20.7 mph N/A   Clear
4:55 PM 56.1 °F - 27.7 °F 34% 29.79 in 10.0 mi West 13.8 mph 19.6 mph N/A   Clear
5:15 PM 54.7 °F - 27.9 °F 36% 29.78 in 10.0 mi West 11.5 mph - N/A   Clear
5:35 PM 53.2 °F - 27.5 °F 37% 29.78 in 10.0 mi WSW 9.2 mph - N/A   Clear
5:55 PM 51.6 °F - 27.7 °F 40% 29.76 in 10.0 mi WSW 9.2 mph - N/A   Clear
6:15 PM 47.3 °F - 27.9 °F 47% 29.75 in 10.0 mi SW 9.2 mph - N/A   Clear
6:35 PM 45.1 °F 40.8 °F 27.7 °F 50% 29.74 in 10.0 mi WSW 8.1 mph - N/A   Clear
6:55 PM 46.6 °F - 28.0 °F 49% 29.73 in 10.0 mi SW 10.4 mph - N/A   Clear
7:15 PM 47.5 °F - 27.9 °F 47% 29.72 in 10.0 mi WSW 12.7 mph - N/A   Clear
7:35 PM 48.6 °F - 27.3 °F 44% 29.71 in 10.0 mi WSW 15.0 mph - N/A   Clear
7:55 PM 50.7 °F - 26.6 °F 39% 29.71 in 10.0 mi WSW 16.1 mph 23.0 mph N/A   Clear
8:15 PM 50.0 °F - 26.4 °F 40% 29.71 in 10.0 mi WSW 16.1 mph - N/A   Clear
9:15 PM 48.2 °F - 25.5 °F 41% 29.69 in 10.0 mi West 17.3 mph 24.2 mph N/A   Clear
9:35 PM 47.7 °F - 25.3 °F 42% 29.68 in 10.0 mi West 19.6 mph 24.2 mph N/A   Clear
9:55 PM 47.5 °F - 24.6 °F 41% 29.68 in 10.0 mi West 17.3 mph 24.2 mph N/A   Clear
10:15 PM 48.6 °F - 23.7 °F 38% 29.68 in 10.0 mi West 19.6 mph 25.3 mph N/A   Clear
10:35 PM 48.7 °F - 23.7 °F 38% 29.68 in 10.0 mi West 18.4 mph 24.2 mph N/A   Clear
10:55 PM 48.6 °F - 23.7 °F 38% 29.69 in 10.0 mi West 13.8 mph 19.6 mph N/A   Clear
11:15 PM 47.7 °F - 23.7 °F 39% 29.69 in 10.0 mi West 15.0 mph - N/A   Clear
11:35 PM 46.4 °F 40.4 °F 23.7 °F 41% 29.70 in 10.0 mi West 13.8 mph 19.6 mph N/A   Clear
11:55 PM 44.4 °F 39.5 °F 23.7 °F 44% 29.71 in 10.0 mi West 9.2 mph - N/A   Clear